| time (UTC) | temp F | wind direction | speed MPH | gust MPH | rain 1hr in | rain 24hr in | rain mn in | humidity % | barometer mb |
| 20260904133105 | 69 | 0 | 0.0 | 0.0 | 0.02 | 1.61 | 0.03 | 97 | 1016.2 |
| 20260904131608 | 69 | 0 | 0.0 | 0.0 | 0.00 | 1.59 | 0.01 | 97 | 1016.2 |
| 20260904130108 | 69 | 0 | 0.0 | 0.0 | 0.00 | 1.59 | 0.01 | 97 | 1015.6 |
| 20260904124608 | 68 | 0 | 0.0 | 0.0 | 0.00 | 1.59 | 0.01 | 97 | 1015.7 |
| 20260904123106 | 68 | 0 | 0.0 | 0.0 | 0.00 | 1.59 | 0.01 | 97 | 1015.5 |
| 20260904121602 | 68 | 0 | 0.0 | 0.0 | 0.00 | 1.59 | 0.01 | 97 | 1015.2 |
| 20260904120113 | 68 | 0 | 0.0 | 0.0 | 0.00 | 1.59 | 0.01 | 97 | 1015.3 |
| 20260904114609 | 67 | 0 | 0.0 | 0.0 | 0.00 | 1.59 | 0.01 | 97 | 1015.2 |
| 20260904113107 | 67 | 0 | 0.0 | 0.0 | 0.00 | 1.59 | 0.01 | 97 | 1015.3 |
| 20260904111604 | 67 | 0 | 0.0 | 0.0 | 0.00 | 1.59 | 0.01 | 97 | 1015.1 |
| 20260904110118 | 67 | 0 | 0.0 | 0.0 | 0.00 | 1.59 | 0.01 | 97 | 1015.0 |
| 20260904104608 | 67 | 0 | 0.0 | 0.0 | 0.00 | 1.59 | 0.01 | 97 | 1014.6 |
| 20260904103105 | 67 | 0 | 0.0 | 0.0 | 0.00 | 1.59 | 0.01 | 97 | 1014.8 |
| 20260904101610 | 67 | 0 | 0.0 | 0.0 | 0.00 | 1.59 | 0.01 | 96 | 1014.6 |
| 20260904100108 | 67 | 0 | 0.0 | 0.0 | 0.00 | 1.59 | 0.01 | 96 | 1014.3 |
| 20260904094607 | 67 | 0 | 0.0 | 0.0 | 0.00 | 1.59 | 0.01 | 96 | 1014.9 |
| 20260904093113 | 67 | 0 | 0.0 | 0.0 | 0.00 | 1.59 | 0.01 | 96 | 1014.9 |
| 20260904091602 | 67 | 0 | 0.0 | 0.0 | 0.00 | 1.59 | 0.01 | 96 | 1014.7 |
| 20260904090104 | 67 | 0 | 0.0 | 0.0 | 0.00 | 1.59 | 0.01 | 96 | 1014.6 |
| 20260904084605 | 67 | 0 | 0.0 | 0.0 | 0.00 | 1.59 | 0.01 | 96 | 1014.7 |
| 20260904083105 | 67 | 0 | 0.0 | 0.0 | 0.00 | 1.59 | 0.01 | 96 | 1014.5 |
| 20260904081605 | 67 | 0 | 0.0 | 1.0 | 0.00 | 1.59 | 0.01 | 96 | 1014.5 |
| 20260904080107 | 67 | 0 | 0.0 | 0.0 | 0.00 | 1.59 | 0.01 | 96 | 1014.8 |
| 20260904074606 | 67 | 0 | 0.0 | 0.0 | 0.00 | 1.59 | 0.01 | 96 | 1014.9 |
| 20260904073107 | 67 | 0 | 0.0 | 0.0 | 0.00 | 1.59 | 0.01 | 96 | 1014.9 |
| 20260904071606 | 67 | 0 | 0.0 | 1.0 | 0.00 | 1.59 | 0.01 | 96 | 1015.1 |
| 20260904070110 | 67 | 0 | 0.0 | 0.0 | 0.00 | 1.59 | 0.01 | 96 | 1015.0 |
| 20260904064605 | 67 | 0 | 0.0 | 1.0 | 0.00 | 1.59 | 0.01 | 96 | 1014.9 |
| 20260904063124 | 67 | 50 | 0.0 | 0.0 | 0.00 | 1.59 | 0.01 | 96 | 1015.0 |
| 20260904061601 | 67 | 0 | 0.0 | 1.0 | 0.00 | 1.59 | 0.01 | 96 | 1015.1 |
| 20260904060104 | 67 | 0 | 0.0 | 1.0 | 0.01 | 1.59 | 0.01 | 96 | 1014.9 |
| 20260904054605 | 67 | 50 | 0.0 | 0.0 | 0.01 | 1.59 | 0.01 | 96 | 1014.9 |
| 20260904053106 | 67 | 0 | 0.0 | 0.0 | 0.01 | 1.59 | 0.01 | 96 | 1015.0 |
| 20260904051623 | 67 | 49 | 0.0 | 1.0 | 0.01 | 1.59 | 0.01 | 96 | 1014.9 |
| 20260904050110 | 68 | 353 | 0.0 | 1.0 | 0.00 | 1.58 | 0.00 | 96 | 1015.0 |
| 20260904044605 | 68 | 33 | 0.0 | 1.0 | 0.00 | 1.58 | 0.00 | 96 | 1015.1 |
| 20260904043110 | 68 | 0 | 0.0 | 1.0 | 0.00 | 1.58 | 0.00 | 96 | 1014.9 |
| 20260904041604 | 68 | 58 | 0.0 | 1.0 | 0.00 | 1.58 | 0.00 | 96 | 1014.9 |
| 20260904040110 | 68 | 249 | 0.0 | 3.0 | 0.02 | 1.58 | 0.00 | 96 | 1014.7 |
| 20260904034604 | 68 | 0 | 0.0 | 4.0 | 0.03 | 1.58 | 1.58 | 96 | 1014.5 |
| 20260904033104 | 68 | 165 | 1.0 | 6.0 | 0.03 | 1.58 | 1.58 | 96 | 1014.0 |
| 20260904031601 | 68 | 150 | 2.0 | 5.0 | 0.03 | 1.58 | 1.58 | 96 | 1014.3 |
| 20260904030110 | 68 | 170 | 1.0 | 5.0 | 0.01 | 1.56 | 1.56 | 96 | 1014.2 |
| 20260904024606 | 68 | 218 | 1.0 | 5.0 | 0.00 | 1.55 | 1.55 | 96 | 1014.3 |
| 20260904023107 | 68 | 150 | 2.0 | 5.0 | 0.00 | 1.55 | 1.55 | 96 | 1014.2 |
| 20260904021607 | 68 | 233 | 2.0 | 6.0 | 0.00 | 1.55 | 1.55 | 96 | 1014.2 |
| 20260904020107 | 68 | 165 | 2.0 | 5.0 | 0.00 | 1.55 | 1.55 | 96 | 1013.9 |
| 20260904014616 | 68 | 162 | 1.0 | 4.0 | 0.00 | 1.55 | 1.55 | 96 | 1013.8 |
| 20260904013106 | 68 | 164 | 1.0 | 5.0 | 0.00 | 1.55 | 1.55 | 96 | 1013.6 |
| 20260904011605 | 68 | 169 | 1.0 | 9.0 | 0.00 | 1.55 | 1.55 | 95 | 1013.7 |
| 20260904010106 | 68 | 155 | 0.0 | 5.0 | 0.01 | 1.55 | 1.55 | 95 | 1013.9 |
| 20260904004604 | 68 | 176 | 2.0 | 4.0 | 0.02 | 1.55 | 1.55 | 95 | 1014.0 |
| 20260904003108 | 68 | 169 | 1.0 | 4.0 | 0.02 | 1.55 | 1.55 | 95 | 1013.8 |
| 20260904001607 | 69 | 166 | 1.0 | 2.0 | 0.04 | 1.55 | 1.55 | 95 | 1014.1 |
| 20260904000106 | 69 | 0 | 0.0 | 0.0 | 0.06 | 1.54 | 1.54 | 95 | 1014.1 |
| 20260903234616 | 69 | 0 | 0.0 | 1.0 | 0.13 | 1.53 | 1.53 | 95 | 1014.9 |
| 20260903233106 | 69 | 0 | 0.0 | 1.0 | 0.42 | 1.53 | 1.53 | 95 | 1015.5 |
| 20260903231608 | 69 | 0 | 0.0 | 5.0 | 1.08 | 1.51 | 1.51 | 94 | 1016.2 |
| 20260903230108 | 69 | 56 | 3.0 | 8.0 | 1.36 | 1.48 | 1.48 | 94 | 1016.8 |
| 20260903224602 | 69 | 51 | 2.0 | 10.0 | 1.36 | 1.40 | 1.40 | 94 | 1016.9 |
| 20260903223103 | 69 | 66 | 4.0 | 9.0 | 1.10 | 1.10 | 1.10 | 92 | 1016.6 |
| 20260903221607 | 72 | 331 | 9.0 | 17.0 | 0.42 | 0.42 | 0.42 | 86 | 1016.6 |
| 20260903220122 | 77 | 46 | 2.0 | 6.0 | 0.12 | 0.12 | 0.12 | 87 | 1013.6 |
| 20260903214605 | 80 | 342 | 2.0 | 5.0 | 0.04 | 0.04 | 0.04 | 79 | 1013.2 |
| 20260903213112 | 83 | 301 | 1.0 | 5.0 | 0.00 | 0.00 | 0.00 | 76 | 1013.9 |
| 20260903211606 | 84 | 0 | 0.0 | 3.0 | 0.00 | 0.00 | 0.00 | 73 | 1013.1 |
| 20260903210115 | 85 | 319 | 1.0 | 4.0 | 0.00 | 0.00 | 0.00 | 72 | 1012.5 |
| 20260903204603 | 86 | 0 | 0.0 | 3.0 | 0.00 | 0.00 | 0.00 | 70 | 1011.8 |
| 20260903203104 | 86 | 0 | 0.0 | 4.0 | 0.00 | 0.00 | 0.00 | 72 | 1012.2 |
| 20260903201603 | 86 | 4 | 1.0 | 6.0 | 0.00 | 0.00 | 0.00 | 73 | 1012.1 |
| 20260903200104 | 86 | 15 | 1.0 | 6.0 | 0.00 | 0.00 | 0.00 | 73 | 1012.1 |
| 20260903194605 | 84 | 290 | 2.0 | 8.0 | 0.00 | 0.00 | 0.00 | 78 | 1012.5 |
| 20260903193107 | 83 | 70 | 1.0 | 11.0 | 0.00 | 0.00 | 0.00 | 78 | 1012.7 |
| 20260903191604 | 86 | 77 | 6.0 | 13.0 | 0.00 | 0.00 | 0.00 | 73 | 1012.7 |
| 20260903190105 | 93 | 314 | 2.0 | 7.0 | 0.00 | 0.00 | 0.00 | 61 | 1012.8 |
| 20260903184605 | 93 | 266 | 3.0 | 6.0 | 0.00 | 0.00 | 0.00 | 63 | 1013.3 |
| 20260903183106 | 93 | 162 | 2.0 | 6.0 | 0.00 | 0.00 | 0.00 | 64 | 1013.2 |
| 20260903181604 | 93 | 333 | 2.0 | 8.0 | 0.00 | 0.00 | 0.00 | 66 | 1013.5 |
| 20260903174601 | 90 | 333 | 2.0 | 7.0 | 0.00 | 0.00 | 0.00 | 68 | 1013.8 |
| 20260903173106 | 92 | 359 | 1.0 | 4.0 | 0.00 | 0.00 | 0.00 | 68 | 1014.0 |
| 20260903171626 | 91 | 231 | 2.0 | 5.0 | 0.00 | 0.00 | 0.00 | 68 | 1014.2 |
| 20260903170104 | 91 | 317 | 1.0 | 4.0 | 0.00 | 0.00 | 0.00 | 70 | 1014.3 |
| 20260903164609 | 89 | 314 | 2.0 | 6.0 | 0.00 | 0.00 | 0.00 | 73 | 1014.3 |
| 20260903163106 | 87 | 218 | 1.0 | 3.0 | 0.00 | 0.00 | 0.00 | 73 | 1014.6 |
| 20260903161609 | 87 | 131 | 1.0 | 4.0 | 0.00 | 0.00 | 0.00 | 73 | 1014.8 |
| 20260903160106 | 86 | 204 | 2.0 | 6.0 | 0.00 | 0.00 | 0.00 | 75 | 1014.6 |
| 20260903154607 | 85 | 190 | 2.0 | 4.0 | 0.00 | 0.00 | 0.00 | 75 | 1014.7 |
| 20260903153104 | 86 | 0 | 0.0 | 6.0 | 0.00 | 0.00 | 0.00 | 77 | 1014.7 |
| 20260903151607 | 85 | 214 | 0.0 | 6.0 | 0.00 | 0.00 | 0.00 | 77 | 1014.7 |
| 20260903144601 | 83 | 157 | 1.0 | 7.0 | 0.00 | 0.00 | 0.00 | 79 | 1014.8 |
| 20260903143112 | 82 | 173 | 2.0 | 7.0 | 0.00 | 0.00 | 0.00 | 79 | 1014.8 |
| 20260903141604 | 82 | 189 | 2.0 | 5.0 | 0.00 | 0.00 | 0.00 | 79 | 1015.0 |
| 20260903140106 | 81 | 172 | 1.0 | 6.0 | 0.00 | 0.00 | 0.00 | 80 | 1014.6 |
| 20260903134604 | 80 | 236 | 1.0 | 3.0 | 0.00 | 0.00 | 0.00 | 83 | 1014.7 |